Location: Newark
(12.4436°N, 0.6167°W)
Time: 14:09:51
(UTC+00:00)

Vanguard 1 - Pass Details

Date: 10 December 2019
Orbit: 650 x 3833 km, 34.2° (Epoch: 28 January)

Event Time Altitude Azimuth Distance (km) Brightness Sun altitude
Rises 00:21:39 0° 216° (SW) 5,867 14.1 -77.8°
Enters shadow 00:22:32 - 214° (SW) 5,695 14.0 -77.7°
Reaches altitude 10° 00:25:06 10° 210° (SSW) 5,221 - -77.3°
Maximum altitude 00:41:41 53° 137° (SE) 3,999 - -74.8°
Exits shadow 00:53:00 34° 83° (E) 5,144 13.5 -72.7°
Drops below altitude 10° 01:04:06 10° 67° (ENE) 6,879 14.4 -70.5°
Sets 01:09:26 0° 63° (ENE) 7,764 14.8 -69.5°
